This is the latest recevied weather packets stored in our database for station/object KE0PRS. If no packets are shown the sender has not sent any weather packets the latest 10 day(s).
| Time | Temp. | Humidity | Pressure | Rain* | Wind** | Luminosity | Snow |
|---|---|---|---|---|---|---|---|
| 1777643148 | 10.56° C | 65% | 1021 hPa | 0 mm | - | 192 W/m² | - |
| 1777642844 | 10° C | 65% | 1020.9 hPa | 0 mm | - | 197 W/m² | - |
| 1777642542 | 10° C | 66% | 1021.1 hPa | 0 mm | - | 200 W/m² | - |
| 1777642238 | 10° C | 69% | 1021.1 hPa | 0 mm | - | 192 W/m² | - |
| 1777641935 | 9.44° C | 69% | 1021.1 hPa | 0 mm | - | 123 W/m² | - |
| 1777641631 | 9.44° C | 69% | 1021 hPa | 0 mm | - | 113 W/m² | - |
| 1777641326 | 8.89° C | 73% | 1021 hPa | 0 mm | - | 94 W/m² | - |
| 1777641021 | 8.89° C | 73% | 1020.9 hPa | 0 mm | - | 100 W/m² | - |
| 1777640718 | 8.89° C | 73% | 1021 hPa | 0 mm | - | 69 W/m² | - |
| 1777640415 | 8.89° C | 74% | 1020.9 hPa | 0 mm | - | 72 W/m² | - |
| 1777640112 | 8.89° C | 74% | 1020.9 hPa | 0 mm | - | 83 W/m² | - |
| 1777639809 | 7.78° C | 75% | 1021 hPa | 0 mm | - | 91 W/m² | - |
| 1777639506 | 7.78° C | 76% | 1021 hPa | 0 mm | - | 81 W/m² | - |
| 1777639202 | 7.78° C | 78% | 1020.9 hPa | 0 mm | - | 64 W/m² | - |
| 1777638899 | 7.22° C | 80% | 1020.9 hPa | 0 mm | - | 57 W/m² | - |
| 1777638594 | 7.22° C | 83% | 1020.7 hPa | 0 mm | - | 50 W/m² | - |
| 1777638291 | 6.67° C | 85% | 1020.9 hPa | 0 mm | - | 44 W/m² | - |
| 1777637988 | 6.67° C | 86% | 1020.7 hPa | 0 mm | - | 38 W/m² | - |
| 1777637684 | 6.11° C | 86% | 1020.4 hPa | 0 mm | - | 31 W/m² | - |
| 1777637381 | 6.11° C | 87% | 1020.6 hPa | 0 mm | - | 24 W/m² | - |
| 1777637077 | 6.11° C | 88% | 1020.7 hPa | 0 mm | - | 18 W/m² | - |
| 1777636773 | 5.56° C | 88% | 1020.6 hPa | 0 mm | - | 13 W/m² | - |
| 1777636470 | 5.56° C | 88% | 1020.4 hPa | 0 mm | - | 9 W/m² | - |
| 1777636166 | 5.56° C | 88% | 1020.4 hPa | 0 mm | - | 6 W/m² | - |
| 1777635861 | 5.56° C | 88% | 1020.1 hPa | 0 mm | - | 3 W/m² | - |
* Rain latest hour (hover to see other rain measurements)
** Current wind speed in m/s (hover to see current wind gust speed)